Location: Unspecified
(0.0000°N, 0.0000°E)
Time: 02:29:45
(UTC+00:00)

ISS - Pass Details

Date: 06 February 2026
Orbit: 413 x 428 km, 51.6° (Epoch: 18 February)

Event Time Altitude Azimuth Distance (km) Brightness Sun altitude
Rises 04:58:33 0° 180° (S) 2,366 0.3 -18.2°
Reaches altitude 10° 05:02:37 10° 132° (SE) 1,492 0.0 -17.2°
Maximum altitude 05:02:55 10° 127° (SE) 1,486 0.1 -17.1°
Drops below altitude 10° 05:03:13 10° 122° (ESE) 1,490 0.2 -17.0°
Sets 05:07:14 0° 73° (ENE) 2,344 1.0 -16.1°
